| time (UTC) | temp F | wind direction | speed knots | gust knots | rain 1hr in | rain 24hr in | rain mn in | humidity % | barometer mb |
| 20260504150504 | 58 | 310 | 8.7 | 15.6 | 0.00 | 0.41 | 0.00 | 61 | 1012.9 |
| 20260504141004 | 58 | 325 | 9.6 | 17.4 | 0.00 | 1.02 | 0.43 | 59 | 1012.4 |
| 20260504140504 | 58 | 326 | 10.4 | 13.9 | 0.00 | 1.07 | 0.43 | 60 | 1012.5 |
| 20260504130504 | 60 | 328 | 11.3 | 17.4 | 0.00 | 1.50 | 0.43 | 59 | 1011.9 |
| 20260504110506 | 60 | 306 | 11.3 | 17.4 | 0.00 | 1.89 | 0.43 | 64 | 1009.3 |
| 20260504082005 | 67 | 337 | 14.8 | 22.6 | 0.00 | 2.23 | 0.43 | 57 | 1005.7 |
| 20260504081004 | 67 | 334 | 18.2 | 24.3 | 0.00 | 2.24 | 0.43 | 56 | 1005.5 |
| 20260504080504 | 68 | 326 | 14.8 | 22.6 | 0.00 | 2.24 | 0.43 | 57 | 1005.2 |
| 20260504050506 | 72 | 296 | 12.2 | 20.0 | 0.00 | 2.29 | 0.43 | 56 | 1002.9 |
| 20260504050005 | 73 | 331 | 13.9 | 17.4 | 0.00 | 2.29 | 0.43 | 55 | 1003.0 |
| 20260504045504 | 73 | 300 | 11.3 | 17.4 | 0.00 | 2.29 | 0.43 | 55 | 1002.8 |
| 20260504044504 | 73 | 302 | 13.0 | 19.1 | 0.00 | 2.29 | 0.43 | 55 | 1002.9 |
| 20260504044004 | 73 | 305 | 12.2 | 20.0 | 0.00 | 2.29 | 0.43 | 55 | 1002.9 |
| 20260504043504 | 73 | 306 | 13.9 | 20.9 | 0.00 | 2.29 | 0.43 | 54 | 1002.9 |
| 20260504043006 | 73 | 292 | 13.9 | 24.3 | 0.00 | 2.29 | 0.43 | 54 | 1002.9 |
| 20260504042505 | 74 | 301 | 13.9 | 19.1 | 0.00 | 2.29 | 0.43 | 53 | 1002.9 |
| 20260504042004 | 74 | 326 | 13.9 | 22.6 | 0.00 | 2.29 | 0.43 | 53 | 1003.0 |
| 20260504041004 | 74 | 290 | 13.9 | 20.9 | 0.00 | 2.29 | 0.43 | 52 | 1003.0 |
| 20260504040504 | 74 | 338 | 13.9 | 22.6 | 0.00 | 2.29 | 0.43 | 52 | 1003.0 |
| 20260504040005 | 73 | 303 | 12.2 | 20.0 | 0.00 | 2.29 | 0.43 | 54 | 1003.0 |
| 20260504035504 | 74 | 309 | 14.8 | 22.6 | 0.00 | 2.29 | 0.43 | 53 | 1003.0 |
| 20260504035004 | 73 | 278 | 14.8 | 22.6 | 0.00 | 2.29 | 0.43 | 56 | 1002.8 |
| 20260504034004 | 73 | 317 | 13.9 | 20.0 | 0.00 | 2.29 | 0.43 | 61 | 1002.8 |
| 20260504033504 | 73 | 317 | 12.2 | 20.0 | 0.00 | 2.29 | 0.43 | 59 | 1002.8 |
| 20260504032505 | 73 | 313 | 10.4 | 17.4 | 0.00 | 2.29 | 0.43 | 62 | 1002.8 |
| 20260504032004 | 73 | 309 | 13.0 | 21.7 | 0.00 | 2.29 | 0.43 | 60 | 1002.8 |
| 20260504031004 | 73 | 330 | 11.3 | 17.4 | 0.00 | 2.29 | 0.43 | 62 | 1002.7 |
| 20260504030504 | 73 | 285 | 13.9 | 19.1 | 0.00 | 2.29 | 0.43 | 61 | 1002.8 |
| 20260504030005 | 73 | 279 | 13.0 | 19.1 | 0.00 | 2.29 | 0.43 | 65 | 1002.9 |
| 20260504025504 | 73 | 300 | 10.4 | 20.9 | 0.00 | 2.29 | 0.43 | 66 | 1002.9 |
| 20260504025005 | 73 | 321 | 11.3 | 17.4 | 0.00 | 2.29 | 0.43 | 66 | 1002.9 |
| 20260504024506 | 72 | 341 | 12.2 | 17.4 | 0.00 | 2.29 | 0.43 | 67 | 1003.1 |
| 20260504024005 | 72 | 321 | 12.2 | 18.2 | 0.00 | 2.29 | 0.43 | 70 | 1002.9 |
| 20260504023504 | 72 | 324 | 10.4 | 18.2 | 0.00 | 2.29 | 0.43 | 70 | 1002.9 |
| 20260504023007 | 71 | 303 | 12.2 | 19.1 | 0.00 | 2.29 | 0.43 | 71 | 1003.0 |
| 20260504022504 | 72 | 323 | 11.3 | 18.2 | 0.00 | 2.29 | 0.43 | 72 | 1002.9 |
| 20260504022004 | 71 | 279 | 11.3 | 18.2 | 0.00 | 2.29 | 0.43 | 72 | 1002.9 |
| 20260504021504 | 71 | 337 | 11.3 | 15.6 | 0.00 | 2.29 | 0.43 | 72 | 1003.0 |
| 20260504021005 | 71 | 295 | 7.8 | 13.0 | 0.00 | 2.29 | 0.43 | 74 | 1003.2 |
| 20260504020004 | 71 | 300 | 8.7 | 13.0 | 0.00 | 2.29 | 0.43 | 75 | 1003.2 |
| 20260504015506 | 70 | 282 | 7.8 | 13.0 | 0.00 | 2.29 | 0.43 | 76 | 1003.3 |
| 20260504015006 | 70 | 273 | 8.7 | 14.8 | 0.00 | 2.29 | 0.43 | 75 | 1003.3 |
| 20260504014504 | 69 | 322 | 7.8 | 15.6 | 0.00 | 2.29 | 0.43 | 77 | 1003.3 |
| 20260504014006 | 69 | 321 | 7.8 | 14.8 | 0.00 | 2.29 | 0.43 | 77 | 1003.5 |
| 20260504013505 | 69 | 313 | 10.4 | 17.4 | 0.00 | 2.29 | 0.43 | 77 | 1003.5 |
| 20260504013006 | 69 | 301 | 10.4 | 13.9 | 0.00 | 2.29 | 0.43 | 78 | 1003.3 |
| 20260504012504 | 69 | 311 | 10.4 | 13.9 | 0.00 | 2.29 | 0.43 | 79 | 1003.4 |
| 20260504012006 | 69 | 294 | 9.6 | 14.8 | 0.00 | 2.29 | 0.43 | 80 | 1003.5 |
| 20260504011507 | 68 | 289 | 8.7 | 14.8 | 0.00 | 2.29 | 0.43 | 81 | 1003.5 |
| 20260504011005 | 68 | 335 | 10.4 | 13.9 | 0.00 | 2.29 | 0.43 | 81 | 1003.2 |
| 20260504010504 | 68 | 268 | 7.8 | 11.3 | 0.00 | 2.29 | 0.43 | 82 | 1003.4 |
| 20260504010005 | 68 | 303 | 8.7 | 14.8 | 0.00 | 2.29 | 0.43 | 82 | 1003.8 |
| 20260504005504 | 67 | 301 | 10.4 | 13.9 | 0.00 | 2.29 | 0.43 | 83 | 1003.7 |
| 20260504005006 | 67 | 305 | 9.6 | 13.9 | 0.00 | 2.29 | 0.43 | 83 | 1003.7 |
| 20260504004504 | 67 | 261 | 8.7 | 14.8 | 0.00 | 2.29 | 0.43 | 84 | 1003.7 |
| 20260504004006 | 68 | 282 | 8.7 | 14.8 | 0.00 | 2.29 | 0.43 | 85 | 1003.4 |
| 20260504003504 | 68 | 294 | 10.4 | 13.9 | 0.00 | 2.29 | 0.43 | 84 | 1003.3 |
| 20260504003004 | 68 | 270 | 7.8 | 10.4 | 0.00 | 2.29 | 0.43 | 85 | 1003.3 |
| 20260504002504 | 67 | 280 | 7.8 | 10.4 | 0.00 | 2.29 | 0.43 | 85 | 1003.3 |
| 20260504002004 | 67 | 263 | 5.2 | 8.7 | 0.00 | 2.29 | 0.43 | 86 | 1003.3 |
| 20260504001504 | 67 | 291 | 6.1 | 12.2 | 0.00 | 2.29 | 0.43 | 86 | 1003.3 |
| 20260504000506 | 67 | 258 | 7.0 | 10.4 | 0.00 | 2.29 | 0.43 | 86 | 1003.3 |
| 20260504000009 | 67 | 277 | 7.0 | 10.4 | 0.00 | 2.29 | 0.43 | 87 | 1003.3 |
| 20260503235504 | 67 | 253 | 7.0 | 10.4 | 0.00 | 2.29 | 0.43 | 87 | 1003.4 |
| 20260503235004 | 66 | 283 | 6.1 | 11.3 | 0.00 | 2.29 | 0.43 | 88 | 1003.4 |
| 20260503234504 | 66 | 291 | 7.8 | 11.3 | 0.00 | 2.29 | 0.43 | 88 | 1003.4 |
| 20260503233504 | 66 | 300 | 7.8 | 13.0 | 0.00 | 2.29 | 0.43 | 88 | 1003.2 |
| 20260503233005 | 66 | 283 | 9.6 | 13.0 | 0.00 | 2.29 | 0.43 | 88 | 1003.2 |
| 20260503232504 | 65 | 297 | 9.6 | 14.8 | 0.00 | 2.29 | 0.43 | 88 | 1003.3 |
| 20260503232005 | 65 | 295 | 8.7 | 15.6 | 0.00 | 2.29 | 0.43 | 89 | 1003.3 |
| 20260503231504 | 65 | 282 | 8.7 | 13.0 | 0.00 | 2.29 | 0.43 | 89 | 1003.3 |
| 20260503231004 | 65 | 294 | 9.6 | 14.8 | 0.00 | 2.29 | 0.43 | 89 | 1003.3 |
| 20260503225507 | 65 | 291 | 8.7 | 13.9 | 0.00 | 2.29 | 0.43 | 90 | 1003.0 |
| 20260503225004 | 65 | 340 | 10.4 | 13.0 | 0.00 | 2.29 | 0.43 | 90 | 1002.6 |
| 20260503224503 | 65 | 282 | 8.7 | 12.2 | 0.00 | 2.29 | 0.43 | 90 | 1002.5 |
| 20260503224004 | 65 | 304 | 6.1 | 13.0 | 0.00 | 2.29 | 0.43 | 90 | 1002.5 |
| 20260503223505 | 65 | 290 | 6.1 | 10.4 | 0.00 | 2.29 | 0.43 | 90 | 1002.5 |
| 20260503223004 | 66 | 283 | 7.0 | 12.2 | 0.00 | 2.29 | 0.43 | 90 | 1002.5 |
| 20260503222504 | 66 | 310 | 8.7 | 12.2 | 0.00 | 2.29 | 0.43 | 90 | 1002.6 |
| 20260503222004 | 66 | 285 | 10.4 | 13.0 | 0.00 | 2.29 | 0.43 | 90 | 1002.7 |
| 20260503221504 | 66 | 302 | 7.8 | 10.4 | 0.00 | 2.29 | 0.43 | 90 | 1002.5 |
| 20260503221005 | 66 | 282 | 7.0 | 11.3 | 0.00 | 2.29 | 0.43 | 90 | 1002.2 |
| 20260503220505 | 66 | 294 | 7.0 | 10.4 | 0.00 | 2.29 | 0.43 | 90 | 1001.9 |
| 20260503220004 | 66 | 305 | 7.8 | 12.2 | 0.00 | 2.29 | 0.43 | 90 | 1002.0 |
| 20260503215505 | 66 | 291 | 8.7 | 13.0 | 0.00 | 2.29 | 0.43 | 90 | 1001.7 |
| 20260503215004 | 66 | 308 | 7.8 | 13.0 | 0.00 | 2.29 | 0.43 | 90 | 1001.7 |
| 20260503214504 | 66 | 321 | 8.7 | 13.0 | 0.00 | 2.29 | 0.43 | 90 | 1001.8 |
| 20260503213505 | 66 | 326 | 12.2 | 18.2 | 0.01 | 2.29 | 0.43 | 89 | 1001.7 |
| 20260503212504 | 67 | 333 | 11.3 | 17.4 | 0.01 | 2.29 | 0.43 | 90 | 1001.5 |
| 20260503212004 | 67 | 307 | 8.7 | 13.0 | 0.01 | 2.29 | 0.43 | 91 | 1001.5 |
| 20260503211504 | 67 | 300 | 8.7 | 13.9 | 0.01 | 2.29 | 0.43 | 91 | 1001.5 |
| 20260503211004 | 67 | 285 | 9.6 | 14.8 | 0.01 | 2.29 | 0.43 | 91 | 1001.7 |
| 20260503210505 | 67 | 319 | 12.2 | 21.7 | 0.01 | 2.29 | 0.43 | 93 | 1001.7 |
| 20260503210004 | 67 | 321 | 7.8 | 15.6 | 0.02 | 2.29 | 0.43 | 95 | 1001.6 |
| 20260503205504 | 67 | 300 | 8.7 | 12.2 | 0.02 | 2.29 | 0.43 | 95 | 1001.5 |
| 20260503204505 | 67 | 310 | 5.2 | 7.8 | 0.04 | 2.29 | 0.43 | 96 | 1001.3 |
| 20260503204004 | 67 | 310 | 6.1 | 11.3 | 0.05 | 2.29 | 0.43 | 96 | 1001.5 |
| 20260503203005 | 67 | 282 | 5.2 | 10.4 | 0.07 | 2.28 | 0.42 | 96 | 1001.2 |
| 20260503202505 | 68 | 281 | 6.1 | 10.4 | 0.07 | 2.28 | 0.42 | 96 | 1001.3 |
| 20260503202005 | 68 | 342 | 5.2 | 11.3 | 0.08 | 2.28 | 0.42 | 96 | 1001.5 |
| 20260503201505 | 68 | 314 | 7.0 | 14.8 | 0.08 | 2.28 | 0.42 | 96 | 1001.5 |
| 20260503201005 | 68 | 301 | 7.8 | 12.2 | 0.08 | 2.28 | 0.42 | 96 | 1001.4 |
| 20260503200504 | 68 | 299 | 7.8 | 11.3 | 0.09 | 2.28 | 0.42 | 96 | 1001.1 |
| 20260503195504 | 68 | 280 | 10.4 | 13.9 | 0.10 | 2.28 | 0.41 | 96 | 1001.1 |
| 20260503195005 | 68 | 276 | 11.3 | 14.8 | 0.12 | 2.26 | 0.39 | 96 | 1001.1 |
| 20260503194504 | 68 | 331 | 9.6 | 19.1 | 0.15 | 2.25 | 0.39 | 95 | 1001.1 |
| 20260503194004 | 68 | 296 | 12.2 | 17.4 | 0.18 | 2.24 | 0.38 | 95 | 1000.9 |
| 20260503193505 | 68 | 310 | 10.4 | 14.8 | 0.18 | 2.23 | 0.36 | 95 | 1001.0 |
| 20260503193004 | 68 | 310 | 10.4 | 19.1 | 0.17 | 2.21 | 0.35 | 96 | 1000.2 |
| 20260503192504 | 68 | 223 | 12.2 | 19.1 | 0.17 | 2.21 | 0.35 | 96 | 1000.2 |
| 20260503192004 | 69 | 340 | 13.0 | 19.1 | 0.16 | 2.20 | 0.34 | 96 | 1000.5 |
| 20260503191006 | 69 | 310 | 13.0 | 20.0 | 0.16 | 2.20 | 0.34 | 96 | 1000.7 |
| 20260503190004 | 68 | 215 | 13.9 | 22.6 | 0.14 | 2.19 | 0.32 | 96 | 1000.0 |
| 20260503185504 | 68 | 327 | 15.6 | 27.8 | 0.13 | 2.17 | 0.31 | 95 | 1000.0 |
| 20260503185004 | 68 | 239 | 12.2 | 24.3 | 0.09 | 2.14 | 0.28 | 95 | 1000.1 |
| 20260503184004 | 69 | 303 | 13.9 | 26.1 | 0.02 | 2.06 | 0.20 | 94 | 1000.4 |
| 20260503183505 | 69 | 339 | 12.2 | 21.7 | 0.00 | 2.05 | 0.18 | 94 | 1000.5 |
| 20260503183005 | 69 | 313 | 12.2 | 20.0 | 0.00 | 2.05 | 0.18 | 94 | 1000.4 |
| 20260503182505 | 69 | 298 | 11.3 | 20.0 | 0.00 | 2.05 | 0.18 | 94 | 1000.7 |
| 20260503182007 | 69 | 235 | 13.9 | 21.7 | 0.00 | 2.05 | 0.18 | 94 | 1000.7 |
| 20260503181506 | 69 | 241 | 11.3 | 18.2 | 0.00 | 2.05 | 0.18 | 94 | 1000.8 |
| 20260503181004 | 69 | 356 | 11.3 | 17.4 | 0.00 | 2.05 | 0.18 | 94 | 1001.0 |
| 20260503175506 | 69 | 283 | 11.3 | 17.4 | 0.01 | 2.05 | 0.18 | 94 | 1001.2 |
| 20260503175005 | 69 | 343 | 11.3 | 18.2 | 0.01 | 2.05 | 0.18 | 95 | 1001.5 |
| 20260503174504 | 69 | 246 | 12.2 | 20.0 | 0.02 | 2.05 | 0.18 | 95 | 1001.5 |
| 20260503173504 | 68 | 9 | 7.0 | 15.6 | 0.02 | 2.05 | 0.18 | 96 | 1001.5 |
| 20260503173005 | 68 | 221 | 7.0 | 15.6 | 0.02 | 2.05 | 0.18 | 96 | 1001.6 |
| 20260503172504 | 68 | 197 | 7.0 | 13.0 | 0.02 | 2.05 | 0.18 | 96 | 1001.8 |
| 20260503172006 | 68 | 210 | 7.0 | 13.9 | 0.02 | 2.05 | 0.18 | 96 | 1002.0 |
| 20260503171505 | 68 | 197 | 5.2 | 13.0 | 0.02 | 2.05 | 0.18 | 96 | 1002.1 |
| 20260503171004 | 67 | 283 | 6.1 | 14.8 | 0.02 | 2.05 | 0.18 | 97 | 1002.3 |
| 20260503170505 | 67 | 169 | 5.2 | 13.9 | 0.02 | 2.05 | 0.18 | 97 | 1002.3 |